Mineral Wells, TX

5:03 AM CST on January 21, 2017 (GMT -0600)
Mineral Wells

Weather History for KMWL - December, 2013

Change the Weather History Date:

Thursday, December 12, 2013

  Actual Average Record
Temperature  
Mean Temperature 34 °F -  
Max Temperature 46 °F 57 °F 75 °F (2004)
Min Temperature 21 °F 33 °F 19 °F (2000)
Degree Days  
Heating Degree Days 32    
Moisture  
Dew Point 26 °F    
Average Humidity 72    
Maximum Humidity 92    
Minimum Humidity 47    
Precipitation  
Precipitation 0.00 in - - ()
Sea Level Pressure  
Sea Level Pressure 30.48 in    
Wind  
Wind Speed 3 mph (SSE)    
Max Wind Speed 8 mph    
Max Gust Speed -    
Visibility 9 miles    
Events      
Averages and records for this station are not official NWS values.
T = Trace of Precipitation, MM = Missing Value Source: NWS Daily Summary

Daily Weather History Graph

Daily Weather History Graph

Search for Another Location

Airport or City:

Trip Planner

Search our weather history database for the weather conditions in past years. The results will help you decide how hot, cold, wet, or windy it might be!

Date:

Astronomy

Dec. 12, 2013 Rise Set
Actual Time 7:25 AM CST 5:26 PM CST
Civil Twilight 6:58 AM CST 5:54 PM CST
Nautical Twilight 6:27 AM CST 6:24 PM CST
Astronomical Twilight 5:57 AM CST 6:54 PM CST
Moon 2:25 PM CST (12/12) 3:00 AM CST (12/12)
Length of Visible Light 10h 55m
Length of Day
10h 01m
Waxing Gibbous, 80% of the Moon is Illuminated
Dec 12
Waxing Gibbous
Dec 17
Full
Dec 25
Last Quarter
Jan 1
New
Jan 7
First Quarter

Hourly Weather History & Observations

Time (CST) Temp. Windchill Dew Point Humidity Pressure Visibility Wind Dir Wind Speed Gust Speed Precip Events Conditions
12:53 AM 28.9 °F 25.2 °F 23.0 °F 78% 30.59 in 10.0 mi North 3.5 mph - N/A   Clear
1:53 AM 28.0 °F - 23.0 °F 81% 30.58 in 10.0 mi Calm Calm - N/A   Clear
2:53 AM 27.0 °F 23.0 °F 21.9 °F 81% 30.58 in 10.0 mi WNW 3.5 mph - N/A   Clear
3:53 AM 26.1 °F - 21.9 °F 84% 30.59 in 10.0 mi Calm Calm - N/A   Clear
4:53 AM 25.0 °F - 21.9 °F 88% 30.58 in 9.0 mi Calm Calm - N/A   Clear
5:53 AM 24.1 °F - 21.0 °F 88% 30.58 in 8.0 mi Calm Calm - N/A   Clear
6:53 AM 21.9 °F - 19.9 °F 92% 30.59 in 8.0 mi Calm Calm - N/A   Clear
7:53 AM 21.9 °F - 19.9 °F 92% 30.60 in 5.0 mi Calm Calm - N/A   Clear
8:53 AM 28.0 °F 24.2 °F 24.1 °F 85% 30.60 in 7.0 mi West 3.5 mph - N/A   Clear
9:53 AM 32.0 °F - 26.1 °F 79% 30.60 in 9.0 mi Calm Calm - N/A   Clear
10:53 AM 35.1 °F 32.2 °F 25.0 °F 67% 30.59 in 10.0 mi South 3.5 mph - N/A   Clear
11:53 AM 39.0 °F 35.7 °F 27.0 °F 62% 30.56 in 10.0 mi Variable 4.6 mph - N/A   Clear
12:53 PM 42.1 °F 40.2 °F 26.1 °F 53% 30.52 in 10.0 mi Variable 3.5 mph - N/A   Clear
1:53 PM 45.0 °F 41.8 °F 27.0 °F 49% 30.47 in 10.0 mi South 5.8 mph - N/A   Clear
2:53 PM 46.0 °F 41.9 °F 27.0 °F 47% 30.43 in 10.0 mi SSE 8.1 mph - N/A   Clear
3:53 PM 44.1 °F - 27.0 °F 51% 30.42 in 10.0 mi Calm Calm - N/A   Clear
4:53 PM 44.1 °F 41.5 °F 28.9 °F 55% 30.40 in 10.0 mi SE 4.6 mph - N/A   Clear
5:53 PM 41.0 °F 38.0 °F 30.0 °F 65% 30.39 in 10.0 mi SSE 4.6 mph - N/A   Clear
6:53 PM 41.0 °F 37.1 °F 30.9 °F 67% 30.37 in 10.0 mi SE 5.8 mph - N/A   Clear
7:53 PM 39.9 °F 35.8 °F 30.9 °F 70% 30.37 in 10.0 mi South 5.8 mph - N/A   Clear
8:53 PM 39.9 °F 35.1 °F 30.9 °F 70% 30.34 in 10.0 mi SE 6.9 mph - N/A   Clear
9:53 PM 39.9 °F 34.5 °F 32.0 °F 73% 30.32 in 10.0 mi SE 8.1 mph - N/A   Clear
10:53 PM 39.0 °F 34.0 °F 32.0 °F 76% 30.29 in 10.0 mi SE 6.9 mph - N/A   Clear
11:53 PM 39.0 °F 33.4 °F 32.0 °F 76% 30.27 in 10.0 mi SSE 8.1 mph - N/A   Clear